Monett, MO

5:18 PM CDT on April 23, 2017 (GMT -0500)
Monett

Weather History for KHFJ - November, 2012

Change the Weather History Date:

Sunday, November 11, 2012

  Actual Average (KJLN) Record (KJLN)
Temperature  
Mean Temperature 48 °F -  
Max Temperature 66 °F 56 °F 81 °F (1949)
Min Temperature 30 °F 36 °F 19 °F (1950)
Degree Days  
Heating Degree Days 17    
Moisture  
Dew Point 45 °F    
Average Humidity 86    
Maximum Humidity 100    
Minimum Humidity 68    
Precipitation  
Precipitation 0.51 in - - ()
Sea Level Pressure  
Sea Level Pressure 29.93 in    
Wind  
Wind Speed 15 mph (West)    
Max Wind Speed 23 mph    
Max Gust Speed 39 mph    
Visibility 9 miles    
Events Rain , Thunderstorm    
Averages and records for this station are not official NWS values.
T = Trace of Precipitation, MM = Missing Value Source: NWS Daily Summary

Daily Weather History Graph

Daily Weather History Graph

Search for Another Location

Airport or City:

Trip Planner

Search our weather history database for the weather conditions in past years. The results will help you decide how hot, cold, wet, or windy it might be!

Date:

Astronomy

Nov. 11, 2012 Rise Set
Actual Time 6:50 AM CST 5:09 PM CST
Civil Twilight 6:23 AM CST 5:36 PM CST
Nautical Twilight 5:52 AM CST 6:07 PM CST
Astronomical Twilight 5:21 AM CST 6:38 PM CST
Moon 4:08 AM CST (11/11) 3:30 PM CST (11/11)
Length of Visible Light 11h 13m
Length of Day
10h 18m
Waning Crescent, 7% of the Moon is Illuminated
Nov 11
Waning Crescent
Nov 13
New
Nov 20
First Quarter
Nov 28
Full
Dec 6
Last Quarter

Hourly Weather History & Observations

Time (CST) Temp. Windchill Dew Point Humidity Pressure Visibility Wind Dir Wind Speed Gust Speed Precip Events Conditions
12:15 AM 64.4 °F - 53.6 °F 68% 29.82 in 10.0 mi SSE 18.4 mph 23.0 mph N/A   Clear
12:35 AM 64.4 °F - 53.6 °F 68% 29.83 in 10.0 mi South 15.0 mph 21.9 mph N/A   Clear
12:55 AM 64.4 °F - 53.6 °F 68% 29.81 in 10.0 mi SSE 16.1 mph - N/A   Clear
1:15 AM 64.4 °F - 55.4 °F 73% 29.81 in 10.0 mi SSE 16.1 mph 23.0 mph N/A   Clear
1:35 AM 64.4 °F - 55.4 °F 73% 29.81 in 10.0 mi South 18.4 mph 26.5 mph N/A   Scattered Clouds
1:55 AM 64.4 °F - 55.4 °F 73% 29.81 in 10.0 mi South 15.0 mph 26.5 mph N/A   Scattered Clouds
2:15 AM 64.4 °F - 55.4 °F 73% 29.80 in 10.0 mi South 20.7 mph 27.6 mph N/A   Scattered Clouds
2:35 AM 64.4 °F - 55.4 °F 73% 29.79 in 10.0 mi South 18.4 mph 26.5 mph N/A   Scattered Clouds
2:55 AM 64.4 °F - 55.4 °F 73% 29.78 in 10.0 mi South 20.7 mph 28.8 mph N/A   Mostly Cloudy
3:15 AM 64.4 °F - 55.4 °F 73% 29.79 in 10.0 mi South 18.4 mph 28.8 mph N/A   Mostly Cloudy
3:35 AM 64.4 °F - 55.4 °F 73% 29.82 in 10.0 mi SSW 17.3 mph - N/A   Mostly Cloudy
3:55 AM 64.4 °F - 55.4 °F 73% 29.82 in 10.0 mi South 17.3 mph 25.3 mph N/A   Overcast
4:15 AM 64.4 °F - 55.4 °F 73% 29.82 in 10.0 mi South 15.0 mph 23.0 mph N/A   Overcast
4:35 AM 64.4 °F - 55.4 °F 73% 29.81 in 10.0 mi South 17.3 mph 24.2 mph N/A   Overcast
4:55 AM 64.4 °F - 55.4 °F 73% 29.80 in 10.0 mi South 18.4 mph 23.0 mph N/A   Overcast
5:15 AM 64.4 °F - 55.4 °F 73% 29.80 in 10.0 mi South 20.7 mph 27.6 mph N/A   Overcast
5:35 AM 64.4 °F - 55.4 °F 73% 29.79 in 10.0 mi South 17.3 mph 26.5 mph N/A   Overcast
5:55 AM 64.4 °F - 55.4 °F 73% 29.79 in 10.0 mi South 19.6 mph 27.6 mph N/A   Overcast
6:15 AM 66.2 °F - 55.4 °F 68% 29.79 in 10.0 mi South 17.3 mph 32.2 mph N/A   Overcast
6:35 AM 64.4 °F - 55.4 °F 73% 29.78 in 10.0 mi SSE 18.4 mph 26.5 mph N/A   Overcast
6:55 AM 64.4 °F - 55.4 °F 73% 29.79 in 10.0 mi South 20.7 mph 27.6 mph N/A   Overcast
7:15 AM 64.4 °F - 55.4 °F 73% 29.79 in 10.0 mi South 20.7 mph 28.8 mph N/A   Overcast
7:35 AM 64.4 °F - 55.4 °F 73% 29.79 in 10.0 mi South 19.6 mph 28.8 mph N/A   Overcast
7:55 AM 66.2 °F - 55.4 °F 68% 29.78 in 10.0 mi SSE 21.9 mph 34.5 mph N/A   Overcast
8:15 AM 66.2 °F - 55.4 °F 68% 29.78 in 10.0 mi South 23.0 mph 34.5 mph N/A   Overcast
8:55 AM 64.4 °F - 55.4 °F 73% 29.78 in 10.0 mi South 19.6 mph 39.1 mph N/A   Overcast
9:15 AM 64.4 °F - 57.2 °F 77% 29.79 in 10.0 mi South 19.6 mph 27.6 mph N/A   Overcast
9:35 AM 53.6 °F - 50.0 °F 88% 29.82 in 10.0 mi NNW 16.1 mph 29.9 mph N/A   Overcast
9:55 AM 50.0 °F - 50.0 °F 100% 29.84 in 4.0 mi NNW 19.6 mph - 0.09 in Rain Rain
10:15 AM 50.0 °F - 48.2 °F 94% 29.86 in 5.0 mi NW 16.1 mph 23.0 mph 0.02 in Rain Rain
10:35 AM 50.0 °F - 48.2 °F 94% 29.88 in 5.0 mi NW 12.7 mph 18.4 mph 0.06 in Rain Light Rain
10:55 AM 50.0 °F - 48.2 °F 94% 29.87 in 7.0 mi NNW 15.0 mph - 0.07 in Rain Light Rain
11:15 AM 50.0 °F - 48.2 °F 94% 29.90 in 7.0 mi NW 8.1 mph - 0.01 in Rain , Thunderstorm Light Thunderstorms and Rain
11:35 AM 50.0 °F - 48.2 °F 94% 29.88 in 7.0 mi NNW 5.8 mph - 0.04 in Rain Light Rain
11:55 AM 50.0 °F - 48.2 °F 94% 29.90 in 7.0 mi West 9.2 mph - 0.07 in Rain Rain
12:15 PM 48.2 °F - 48.2 °F 100% 29.91 in 7.0 mi West 8.1 mph - 0.06 in Rain Light Rain
12:35 PM 48.2 °F - 46.4 °F 93% 29.89 in 7.0 mi West 6.9 mph - 0.10 in Rain Light Rain
12:55 PM 48.2 °F - 46.4 °F 93% 29.88 in 7.0 mi West 3.5 mph - 0.14 in Rain Light Rain
1:15 PM 48.2 °F - 44.6 °F 87% 29.88 in 10.0 mi NW 5.8 mph - 0.01 in Rain Light Rain
1:35 PM 48.2 °F - 46.4 °F 93% 29.92 in 7.0 mi West 4.6 mph - 0.04 in Rain Light Rain
2:15 PM 48.2 °F - 44.6 °F 87% 29.89 in 10.0 mi NNW 5.8 mph - N/A Rain Light Rain
2:35 PM 48.2 °F - 44.6 °F 87% 29.92 in 10.0 mi NW 3.5 mph - 0.02 in Rain Light Rain
2:55 PM 46.4 °F 44.3 °F 46.4 °F 100% 29.91 in 10.0 mi NW 4.6 mph - 0.06 in Rain Light Rain
3:15 PM 46.4 °F 45.2 °F 46.4 °F 100% 29.93 in 10.0 mi West 3.5 mph - 0.01 in   Light Drizzle
3:35 PM 42.8 °F 34.5 °F 42.8 °F 100% 29.94 in 2.5 mi NW 18.4 mph - 0.04 in Rain , Thunderstorm Thunderstorms and Rain
3:55 PM 37.4 °F 28.9 °F 37.4 °F 100% 29.97 in 7.0 mi NW 13.8 mph 19.6 mph 0.04 in   Drizzle
4:15 PM 37.4 °F 28.2 °F 35.6 °F 93% 29.98 in 10.0 mi NW 16.1 mph - N/A Rain Light Rain
4:35 PM 37.4 °F 29.8 °F 35.6 °F 93% 29.98 in 10.0 mi NW 11.5 mph - N/A Rain Light Rain
4:55 PM 35.6 °F 27.1 °F 35.6 °F 100% 30.01 in 10.0 mi NNW 12.7 mph - N/A   Overcast
5:15 PM 35.6 °F 28.0 °F 35.6 °F 100% 30.02 in 10.0 mi NW 10.4 mph 16.1 mph N/A   Overcast
5:35 PM 35.6 °F 28.0 °F 35.6 °F 100% 30.04 in 10.0 mi NW 10.4 mph - N/A   Overcast
5:55 PM 35.6 °F 27.5 °F 35.6 °F 100% 30.05 in 7.0 mi NW 11.5 mph - N/A   Overcast
6:15 PM 35.6 °F 26.6 °F 33.8 °F 93% 30.05 in 10.0 mi NW 13.8 mph - N/A   Overcast
6:35 PM 35.6 °F 27.1 °F 33.8 °F 93% 30.07 in 5.0 mi NW 12.7 mph - N/A   Overcast
6:55 PM 33.8 °F 25.3 °F 33.8 °F 100% 30.08 in 4.0 mi WNW 11.5 mph 17.3 mph N/A   Overcast
7:15 PM 33.8 °F 24.8 °F 33.8 °F 100% 30.10 in 5.0 mi WNW 12.7 mph 18.4 mph N/A   Overcast
7:35 PM 33.8 °F 24.3 °F 32.0 °F 93% 30.12 in 10.0 mi NW 13.8 mph 18.4 mph N/A   Overcast
7:55 PM 33.8 °F 23.5 °F 32.0 °F 93% 30.11 in 10.0 mi NW 16.1 mph - N/A   Overcast
8:15 PM 33.8 °F 25.3 °F 32.0 °F 93% 30.12 in 10.0 mi NW 11.5 mph 23.0 mph N/A   Overcast
8:35 PM 33.8 °F 23.9 °F 32.0 °F 93% 30.14 in 10.0 mi NW 15.0 mph 18.4 mph N/A   Overcast
8:55 PM 32.0 °F 23.0 °F 32.0 °F 100% 30.16 in 10.0 mi NW 11.5 mph 18.4 mph N/A   Overcast
9:15 PM 32.0 °F 22.5 °F 30.2 °F 93% 30.17 in 10.0 mi NW 12.7 mph 18.4 mph N/A   Overcast
9:35 PM 32.0 °F 22.5 °F 30.2 °F 93% 30.19 in 10.0 mi NW 12.7 mph - N/A   Overcast
9:55 PM 32.0 °F 22.1 °F 28.4 °F 87% 30.18 in 10.0 mi NW 13.8 mph 19.6 mph N/A   Mostly Cloudy
10:15 PM 32.0 °F 23.0 °F 28.4 °F 87% 30.18 in 10.0 mi NW 11.5 mph - N/A   Scattered Clouds
10:35 PM 32.0 °F 23.6 °F 28.4 °F 87% 30.19 in 10.0 mi NW 10.4 mph - N/A   Clear
10:55 PM 32.0 °F 24.8 °F 28.4 °F 87% 30.20 in 10.0 mi NW 8.1 mph - N/A   Clear
11:15 PM 32.0 °F 24.8 °F 28.4 °F 87% 30.20 in 10.0 mi NW 8.1 mph - N/A   Clear
11:35 PM 30.2 °F 23.4 °F 28.4 °F 93% 30.21 in 10.0 mi WNW 6.9 mph - N/A   Clear
11:55 PM 30.2 °F 21.3 °F 28.4 °F 93% 30.22 in 10.0 mi NW 10.4 mph - N/A   Clear